Laramie, WY

2:46 AM MDT on August 19, 2017 (GMT -0600)
Laramie Regional

Weather History for KLAR - September, 2011

Change the Weather History Date:

Tuesday, September 27, 2011

  Actual Average Record
Temperature  
Mean Temperature 56 °F 49 °F  
Max Temperature 77 °F 64 °F 80 °F (2014)
Min Temperature 35 °F 34 °F 8 °F (1996)
Degree Days  
Heating Degree Days 9 16  
Month to date heating degree days 295 301  
Since 1 July heating degree days 321 473  
Cooling Degree Days 0 0  
Month to date cooling degree days 2 0  
Year to date cooling degree days 126 66  
Growing Degree Days 7 (Base 50)    
Moisture  
Dew Point 27 °F    
Average Humidity 42    
Maximum Humidity 70    
Minimum Humidity 14    
Precipitation  
Precipitation 0.00 in 0.03 in 0.19 in (1982)
Month to date precipitation 0.89 1.01  
Year to date precipitation 8.64 9.16  
Sea Level Pressure  
Sea Level Pressure 30.08 in    
Wind  
Wind Speed 8 mph (WSW)    
Max Wind Speed 18 mph    
Max Gust Speed 23 mph    
Visibility 10 miles    
Events      
T = Trace of Precipitation, MM = Missing Value Source: NWS Daily Summary

Daily Weather History Graph

Daily Weather History Graph

Search for Another Location

Airport or City:

Trip Planner

Search our weather history database for the weather conditions in past years. The results will help you decide how hot, cold, wet, or windy it might be!

Date:

Astronomy

Sep. 27, 2011 Rise Set
Actual Time 6:55 AM MDT 6:51 PM MDT
Civil Twilight 6:27 AM MDT 7:19 PM MDT
Nautical Twilight 5:55 AM MDT 7:51 PM MDT
Astronomical Twilight 5:22 AM MDT 8:23 PM MDT
Moon 7:13 AM MDT (9/27) 6:42 PM MDT (9/27)
Length of Visible Light 12h 51m
Length of Day
11h 56m
New Moon, 0% of the Moon is Illuminated
Sep 27
New Moon
Oct 3
First Quarter
Oct 11
Full
Oct 19
Last Quarter
Oct 26
New

Hourly Weather History & Observations

Time (MDT) Temp. Windchill Dew Point Humidity Pressure Visibility Wind Dir Wind Speed Gust Speed Precip Events Conditions
12:53 AM 45.0 °F 42.6 °F 26.1 °F 48% 30.01 in 10.0 mi West 4.6 mph - N/A   Clear
1:53 AM 39.0 °F 32.3 °F 28.0 °F 65% 30.04 in 10.0 mi South 10.4 mph - N/A   Clear
2:53 AM 37.0 °F 34.5 °F 27.0 °F 67% 30.04 in 10.0 mi SSE 3.5 mph - N/A   Clear
3:53 AM 37.9 °F 32.1 °F 27.0 °F 65% 30.04 in 10.0 mi South 8.1 mph - N/A   Clear
4:53 AM 37.4 °F 30.8 °F 28.4 °F 70% 30.30 in 10.0 mi South 9.2 mph - N/A   Clear
5:53 AM 41.0 °F 35.8 °F 26.6 °F 57% 30.30 in 10.0 mi South 8.1 mph - N/A   Clear
6:53 AM 37.0 °F 32.4 °F 27.0 °F 67% 30.13 in 10.0 mi SE 5.8 mph - N/A   Clear
7:53 AM 46.0 °F 42.5 °F 28.9 °F 51% 30.11 in 10.0 mi SSE 6.9 mph - N/A   Clear
8:53 AM 54.0 °F - 30.0 °F 40% 30.09 in 10.0 mi SSE 5.8 mph - N/A   Clear
9:53 AM 62.1 °F - 30.0 °F 30% 30.08 in 10.0 mi WNW 3.5 mph - N/A   Clear
10:53 AM 68.0 °F - 30.9 °F 25% 30.07 in 10.0 mi North 8.1 mph - N/A   Clear
11:53 AM 71.6 °F - 30.2 °F 22% 30.33 in 10.0 mi NNW 8.1 mph 16.1 mph N/A   Clear
12:53 PM 73.0 °F - 30.0 °F 20% 30.03 in 10.0 mi Variable 4.6 mph - N/A   Clear
1:53 PM 73.9 °F - 27.0 °F 18% 30.02 in 10.0 mi WNW 6.9 mph - N/A   Clear
2:53 PM 75.9 °F - 26.1 °F 16% 30.00 in 10.0 mi NNW 11.5 mph 16.1 mph N/A   Clear
3:53 PM 77.0 °F - 25.0 °F 15% 29.98 in 10.0 mi WNW 15.0 mph 20.7 mph N/A   Clear
4:03 PM 75.2 °F - 24.8 °F 15% 30.25 in 10.0 mi WSW 16.1 mph 23.0 mph N/A   Clear
4:53 PM 75.0 °F - 27.0 °F 17% 29.99 in 10.0 mi NW 11.5 mph 18.4 mph N/A   Clear
5:53 PM 73.0 °F - 25.0 °F 17% 29.99 in 10.0 mi NNW 15.0 mph - N/A   Clear
6:53 PM 64.0 °F - 28.0 °F 26% 30.05 in 10.0 mi WNW 11.5 mph - N/A   Clear
7:53 PM 57.0 °F - 27.0 °F 32% 30.05 in 10.0 mi NW 8.1 mph - N/A   Clear
8:53 PM 54.0 °F - 26.1 °F 34% 30.04 in 10.0 mi West 9.2 mph - N/A   Clear
9:53 PM 54.0 °F - 26.1 °F 34% 30.00 in 10.0 mi WSW 9.2 mph - N/A   Clear
10:53 PM 46.0 °F 41.9 °F 28.0 °F 50% 30.01 in 10.0 mi South 8.1 mph - N/A   Clear
11:53 PM 46.0 °F 41.9 °F 27.0 °F 47% 29.99 in 10.0 mi SW 8.1 mph - N/A   Clear